Location: Oak Glen
(34.0495°N, 116.9470°E)
Time: 13:53:28
(UTC-07:00)

Vanguard 1 - Visible Passes

Search period start: 17 October 2017 00:00
Search period end: 27 October 2017 00:00
Orbit: 650 x 3834 km, 34.3° (Epoch: 15 October)

Date Brightness Start Highest point End Pass type
(mag) Time Alt. Az. Time Alt. Az. Time Alt. Az.
17 Oct 13.8 08:34:35 16° E 08:34:35 16° E 08:38:05 10° ENE visible
17 Oct 12.6 10:47:18 69° E 10:47:18 69° E 11:07:19 10° E visible
17 Oct 12.7 13:00:00 39° W 13:11:23 90° S 13:34:53 10° E visible
18 Oct 13.7 08:54:21 22° E 08:54:21 22° E 09:00:17 10° ENE visible
18 Oct 12.4 11:07:03 80° E 11:07:03 80° E 11:29:17 10° E visible
18 Oct 12.8 13:19:46 32° W 13:33:21 87° SSW 13:56:32 10° ESE visible
19 Oct 13.5 09:14:08 28° E 09:14:08 28° E 09:22:21 10° ENE visible
19 Oct 12.3 11:26:50 88° W 11:27:12 90° S 11:51:15 10° E visible
19 Oct 12.9 13:39:33 26° W 13:55:14 82° SSW 14:18:02 10° ESE visible
20 Oct 13.3 09:33:56 34° E 09:33:56 34° E 09:44:22 10° ENE visible
20 Oct 12.3 11:46:38 77° W 11:49:04 89° N 12:13:13 10° E visible
20 Oct 13.0 13:59:21 20° WNW 14:16:59 76° SSW 14:39:20 10° ESE visible
21 Oct 13.1 09:53:45 41° E 09:53:45 41° E 10:06:23 10° E visible
21 Oct 12.4 12:06:28 66° W 12:10:58 90° S 12:35:08 10° E visible
21 Oct 13.0 14:19:11 15° WNW 14:38:35 68° SSW 15:00:24 10° SE visible
22 Oct 12.9 10:13:37 49° E 10:13:37 49° E 10:28:27 10° E visible
22 Oct 12.4 12:26:20 57° W 12:32:51 87° SSW 12:56:55 10° ESE visible
22 Oct 13.1 14:39:03 10° WNW 15:00:01 60° SSW 15:21:11 10° SE visible
23 Oct 14.0 08:20:47 11° ENE 08:20:47 11° ENE 08:21:14 10° ENE visible
23 Oct 12.7 10:33:30 58° E 10:33:30 58° E 10:50:31 10° E visible
23 Oct 12.5 12:46:13 48° W 12:54:39 82° SSW 13:18:32 10° ESE visible
24 Oct 13.9 08:40:42 15° ENE 08:40:42 15° ENE 08:43:14 10° ENE visible
24 Oct 12.5 10:53:26 67° E 10:53:26 67° E 11:12:35 10° E visible
24 Oct 12.7 13:06:09 40° W 13:16:22 75° SSW 13:39:56 10° ESE visible
25 Oct 13.7 09:00:40 20° E 09:00:40 20° E 09:05:15 10° E visible
25 Oct 12.4 11:13:24 77° E 11:13:24 77° E 11:34:37 10° E visible
25 Oct 12.8 13:26:08 33° W 13:37:57 67° SSW 14:01:05 10° SE visible
26 Oct 13.5 09:20:40 25° E 09:20:40 25° E 09:27:19 10° E visible
26 Oct 12.3 11:33:24 85° SSE 11:33:24 85° SSE 11:56:31 10° ESE visible
26 Oct 12.9 13:46:08 27° W 13:59:26 59° SSW 14:21:55 10° SE visible
